| time (UTC) | temp F | wind direction | speed knots | gust knots | rain 1hr in | rain 24hr in | rain mn in | humidity % | barometer mb |
| 20260507031909 | 50 | 290 | 7.8 | 0.0 | 0.00 | 0.00 | 0.00 | 99 | |
| 20260507021909 | 52 | 280 | 1.7 | 0.0 | 0.00 | 0.00 | 0.00 | 93 | |
| 20260507012018 | 54 | 350 | 1.7 | 0.0 | 0.00 | 0.00 | 0.00 | 93 | |
| 20260507001909 | 54 | 310 | 1.7 | 0.0 | 0.00 | 0.00 | 0.00 | 93 | |
| 20260506231909 | 54 | 0 | 0.0 | 0.0 | 0.00 | 0.00 | 0.00 | 93 | |
| 20260506222108 | 55 | 270 | 6.1 | 0.0 | 0.00 | 0.00 | 0.00 | 87 | |
| 20260506211909 | 55 | 310 | 4.3 | 0.0 | 0.00 | 0.00 | 0.00 | 87 | |
| 20260506201941 | 59 | 310 | 4.3 | 0.0 | 0.00 | 0.00 | 0.00 | 77 | |
| 20260506192100 | 59 | 60 | 1.7 | 0.0 | 0.00 | 0.00 | 0.00 | 72 | |
| 20260506181957 | 63 | 190 | 1.7 | 0.0 | 0.00 | 0.00 | 0.00 | 67 | |
| 20260506171907 | 64 | 170 | 1.7 | 0.0 | 0.00 | 0.00 | 0.00 | 63 | |
| 20260506162125 | 66 | 280 | 4.3 | 0.0 | 0.00 | 0.00 | 0.00 | 55 | |
| 20260506151939 | 68 | 250 | 1.7 | 0.0 | 0.00 | 0.00 | 0.00 | 49 | |
| 20260506141925 | 64 | 160 | 6.1 | 0.0 | 0.00 | 0.00 | 0.00 | 59 | |
| 20260506131926 | 64 | 200 | 6.1 | 0.0 | 0.00 | 0.00 | 0.00 | 59 | |
| 20260506121925 | 64 | 190 | 6.1 | 0.0 | 0.00 | 0.00 | 0.00 | 63 | |
| 20260506111910 | 63 | 180 | 6.1 | 0.0 | 0.00 | 0.00 | 0.00 | 67 | |
| 20260506102112 | 61 | 180 | 7.8 | 0.0 | 0.00 | 0.00 | 0.00 | 67 | |
| 20260506091910 | 61 | 200 | 10.4 | 0.0 | 0.00 | 0.00 | 0.00 | 67 | |
| 20260506081908 | 59 | 200 | 7.8 | 0.0 | 0.00 | 0.00 | 0.00 | 72 | |
| 20260506071910 | 57 | 230 | 7.8 | 0.0 | 0.00 | 0.00 | 0.00 | 76 | |
| 20260506061911 | 55 | 180 | 7.8 | 0.0 | 0.00 | 0.00 | 0.00 | 82 | |
| 20260506042109 | 54 | 120 | 4.3 | 0.0 | 0.00 | 0.00 | 0.00 | 87 |